Location: Carnetin
(48.9010°N, 2.7059°E)
Time: 15:21:35
(UTC+00:00)

SWARM A - Pass Details

Date: 24 October 2021
Orbit: 424 x 430 km, 87.4° (Epoch: 27 November)

Event Time Altitude Azimuth Distance (km) Brightness Sun altitude
Rises 18:24:19 0° 180° (S) 2,391 8.0 -17.4°
Reaches altitude 10° 18:26:20 10° 181° (S) 1,530 7.0 -17.7°
Maximum altitude 18:29:39 89° 96° (E) 439 4.1 -18.3°
Drops below altitude 10° 18:33:00 10° 2° (N) 1,545 7.0 -18.8°
Sets 18:35:03 0° 3° (N) 2,418 8.0 -19.1°
